Time,TemperatureF,DewpointF,PressureIn,WindDirection,WindDirectionDegrees,WindSpeedMPH,WindSpeedGustMPH,Humidity,HourlyPrecipIn,Conditions,Clouds,dailyrainin,SoftwareType,DateUTC
2013-10-20 00:02:00,48.0,47.0,-100.00,SSE,150,1.0,5.0,96,0.00,,,0.04,,2013-10-20 08:02:00,
2013-10-20 00:11:00,48.0,47.0,-100.00,SSE,150,1.0,5.0,96,0.00,,,0.04,,2013-10-20 08:11:00,
2013-10-20 00:22:00,49.0,47.0,-100.00,South,180,4.0,7.0,91,0.00,,,0.04,,2013-10-20 08:22:00,
2013-10-20 00:32:00,49.0,47.0,-100.00,South,180,4.0,7.0,91,0.00,,,0.04,,2013-10-20 08:32:00,
2013-10-20 00:42:00,49.0,47.0,-100.00,South,180,4.0,7.0,91,0.00,,,0.04,,2013-10-20 08:42:00,
2013-10-20 00:52:00,49.0,46.0,-100.00,East,95,1.0,4.0,89,0.00,,,0.04,,2013-10-20 08:52:00,
2013-10-20 01:02:00,49.0,46.0,-100.00,East,95,1.0,4.0,89,0.00,,,0.04,,2013-10-20 09:02:00,
2013-10-20 01:11:00,49.0,46.0,-100.00,East,95,1.0,4.0,89,0.00,,,0.04,,2013-10-20 09:11:00,
2013-10-20 01:21:00,49.0,46.0,-100.00,SSE,160,3.0,6.0,92,0.00,,,0.04,,2013-10-20 09:21:00,
2013-10-20 01:33:00,49.0,46.0,-100.00,SSE,160,3.0,6.0,92,0.00,,,0.04,,2013-10-20 09:33:00,
2013-10-20 01:43:00,49.0,46.0,-100.00,SSE,160,3.0,6.0,92,0.00,,,0.04,,2013-10-20 09:43:00,
2013-10-20 01:53:00,49.0,47.0,-100.00,SSE,160,4.0,7.0,93,0.00,,,0.04,,2013-10-20 09:53:00,
2013-10-20 02:03:00,49.0,47.0,-100.00,SSE,160,4.0,7.0,93,0.00,,,0.04,,2013-10-20 10:03:00,
2013-10-20 02:12:00,49.0,47.0,-100.00,SSE,160,4.0,7.0,93,0.00,,,0.04,,2013-10-20 10:12:00,
2013-10-20 02:23:00,49.0,47.0,-100.00,SE,130,3.0,7.0,91,0.03,,,0.07,,2013-10-20 10:23:00,
2013-10-20 02:33:00,49.0,47.0,-100.00,SE,130,3.0,7.0,91,0.03,,,0.07,,2013-10-20 10:33:00,
2013-10-20 02:43:00,49.0,47.0,-100.00,SE,130,3.0,7.0,91,0.03,,,0.07,,2013-10-20 10:43:00,
2013-10-20 02:53:00,49.0,46.0,-100.00,South,170,2.0,6.0,90,0.03,,,0.07,,2013-10-20 10:53:00,
2013-10-20 03:02:00,49.0,46.0,-100.00,South,170,2.0,6.0,90,0.03,,,0.07,,2013-10-20 11:02:00,
2013-10-20 03:12:00,49.0,46.0,-100.00,South,170,2.0,6.0,90,0.03,,,0.07,,2013-10-20 11:12:00,
2013-10-20 03:22:00,49.0,47.0,-100.00,South,180,2.0,7.0,92,0.00,,,0.07,,2013-10-20 11:22:00,
2013-10-20 03:33:00,49.0,47.0,-100.00,South,180,2.0,7.0,92,0.00,,,0.07,,2013-10-20 11:33:00,
2013-10-20 03:42:00,49.0,47.0,-100.00,South,180,2.0,7.0,92,0.00,,,0.07,,2013-10-20 11:42:00,
2013-10-20 03:52:00,49.0,46.0,-100.00,SSE,155,1.0,4.0,92,0.00,,,0.07,,2013-10-20 11:52:00,
2013-10-20 04:02:00,49.0,46.0,-100.00,SSE,155,1.0,4.0,92,0.00,,,0.07,,2013-10-20 12:02:00,
2013-10-20 04:11:00,49.0,46.0,-100.00,SSE,155,1.0,4.0,92,0.00,,,0.07,,2013-10-20 12:11:00,
2013-10-20 04:21:00,49.0,47.0,-100.00,NNE,20,1.0,4.0,92,0.00,,,0.07,,2013-10-20 12:21:00,
2013-10-20 04:32:00,49.0,47.0,-100.00,NNE,20,1.0,4.0,92,0.00,,,0.07,,2013-10-20 12:32:00,
2013-10-20 04:42:00,49.0,47.0,-100.00,NNE,20,1.0,4.0,92,0.00,,,0.07,,2013-10-20 12:42:00,
2013-10-20 04:52:00,48.0,46.0,-100.00,NE,40,1.0,1.0,94,0.00,,,0.07,,2013-10-20 12:52:00,
2013-10-20 05:01:00,48.0,46.0,-100.00,NE,40,1.0,1.0,94,0.00,,,0.07,,2013-10-20 13:01:00,
2013-10-20 05:11:00,48.0,46.0,-100.00,NE,40,1.0,1.0,94,0.00,,,0.07,,2013-10-20 13:11:00,
2013-10-20 05:21:00,47.0,45.0,-100.00,NE,45,1.0,1.0,95,0.00,,,0.07,,2013-10-20 13:21:00,
2013-10-20 05:32:00,47.0,45.0,-100.00,NE,45,1.0,1.0,95,0.00,,,0.07,,2013-10-20 13:32:00,
2013-10-20 05:42:00,47.0,45.0,-100.00,NE,45,1.0,1.0,95,0.00,,,0.07,,2013-10-20 13:42:00,
2013-10-20 05:52:00,47.0,46.0,-100.00,NNE,15,1.0,2.0,96,0.00,,,0.07,,2013-10-20 13:52:00,
2013-10-20 06:02:00,47.0,46.0,-100.00,NNE,15,1.0,2.0,96,0.00,,,0.07,,2013-10-20 14:02:00,
2013-10-20 06:12:00,47.0,46.0,-100.00,NNE,15,1.0,2.0,96,0.00,,,0.07,,2013-10-20 14:12:00,
2013-10-20 06:21:00,47.0,45.0,-100.00,SSW,195,0.0,2.0,96,0.00,,,0.07,,2013-10-20 14:21:00,
2013-10-20 06:32:00,47.0,45.0,-100.00,SSW,195,0.0,2.0,96,0.00,,,0.07,,2013-10-20 14:32:00,
2013-10-20 06:42:00,47.0,45.0,-100.00,SSW,195,0.0,2.0,96,0.00,,,0.07,,2013-10-20 14:42:00,
2013-10-20 06:52:00,47.0,45.0,-100.00,SW,235,1.0,3.0,96,0.00,,,0.05,,2013-10-20 14:52:00,
2013-10-20 07:02:00,47.0,45.0,-100.00,SW,235,1.0,3.0,96,0.00,,,0.05,,2013-10-20 15:02:00,
2013-10-20 07:11:00,47.0,45.0,-100.00,SW,235,1.0,3.0,96,0.00,,,0.05,,2013-10-20 15:11:00,
2013-10-20 07:21:00,46.0,45.0,-100.00,South,190,0.0,1.0,97,0.00,,,0.05,,2013-10-20 15:21:00,
2013-10-20 07:34:00,46.0,45.0,-100.00,South,190,0.0,1.0,97,0.00,,,0.05,,2013-10-20 15:34:00,
2013-10-20 07:44:00,46.0,45.0,-100.00,South,190,0.0,1.0,97,0.00,,,0.05,,2013-10-20 15:44:00,
2013-10-20 07:54:00,46.0,45.0,-100.00,WSW,245,1.0,1.0,97,0.00,,,0.05,,2013-10-20 15:54:00,
2013-10-20 08:04:00,46.0,45.0,-100.00,WSW,245,1.0,1.0,97,0.00,,,0.05,,2013-10-20 16:04:00,
2013-10-20 08:24:00,46.0,45.0,-100.00,North,350,0.0,1.0,97,0.00,,,0.03,,2013-10-20 16:24:00,
2013-10-20 08:33:00,46.0,45.0,-100.00,North,350,0.0,1.0,97,0.00,,,0.03,,2013-10-20 16:33:00,
2013-10-20 08:43:00,46.0,45.0,-100.00,North,350,0.0,1.0,97,0.00,,,0.03,,2013-10-20 16:43:00,
2013-10-20 08:53:00,46.0,45.0,-100.00,NNE,25,0.0,2.0,97,0.02,,,0.05,,2013-10-20 16:53:00,
2013-10-20 09:03:00,46.0,45.0,-100.00,NNE,25,0.0,2.0,97,0.02,,,0.05,,2013-10-20 17:03:00,
2013-10-20 09:12:00,46.0,45.0,-100.00,NNE,25,0.0,2.0,97,0.02,,,0.05,,2013-10-20 17:12:00,
2013-10-20 09:23:00,45.0,45.0,-100.00,West,260,1.0,2.0,97,0.02,,,0.05,,2013-10-20 17:23:00,
2013-10-20 09:34:00,45.0,45.0,-100.00,West,260,1.0,2.0,97,0.02,,,0.05,,2013-10-20 17:34:00,
2013-10-20 09:42:00,45.0,45.0,-100.00,West,260,1.0,2.0,97,0.02,,,0.05,,2013-10-20 17:42:00,
2013-10-20 09:52:00,46.0,45.0,-100.00,NNW,340,0.0,2.0,97,0.00,,,0.05,,2013-10-20 17:52:00,
2013-10-20 10:02:00,46.0,45.0,-100.00,NNW,340,0.0,2.0,97,0.00,,,0.05,,2013-10-20 18:02:00,
2013-10-20 10:12:00,46.0,45.0,-100.00,NNW,340,0.0,2.0,97,0.00,,,0.05,,2013-10-20 18:12:00,
2013-10-20 10:21:00,47.0,46.0,-100.00,SW,220,1.0,3.0,97,0.00,,,0.05,,2013-10-20 18:21:00,
2013-10-20 10:32:00,47.0,46.0,-100.00,SW,220,1.0,3.0,97,0.00,,,0.05,,2013-10-20 18:32:00,
2013-10-20 10:42:00,47.0,46.0,-100.00,SW,220,1.0,3.0,97,0.00,,,0.05,,2013-10-20 18:42:00,
2013-10-20 10:52:00,48.0,47.0,-100.00,NNW,330,0.0,1.0,97,0.00,,,0.05,,2013-10-20 18:52:00,
2013-10-20 11:02:00,48.0,47.0,-100.00,NNW,330,0.0,1.0,97,0.00,,,0.05,,2013-10-20 19:02:00,
2013-10-20 11:12:00,48.0,47.0,-100.00,NNW,330,0.0,1.0,97,0.00,,,0.05,,2013-10-20 19:12:00,
2013-10-20 11:21:00,49.0,48.0,-100.00,SW,225,0.0,1.0,97,0.00,,,0.05,,2013-10-20 19:21:00,
2013-10-20 11:32:00,49.0,48.0,-100.00,SW,225,0.0,1.0,97,0.00,,,0.05,,2013-10-20 19:32:00,
2013-10-20 11:42:00,49.0,48.0,-100.00,SW,225,0.0,1.0,97,0.00,,,0.05,,2013-10-20 19:42:00,
2013-10-20 11:52:00,50.0,49.0,-100.00,North,350,0.0,3.0,97,0.00,,,0.05,,2013-10-20 19:52:00,
2013-10-20 12:02:00,50.0,49.0,-100.00,North,350,0.0,3.0,97,0.00,,,0.05,,2013-10-20 20:02:00,
2013-10-20 12:11:00,50.0,49.0,-100.00,North,350,0.0,3.0,97,0.00,,,0.05,,2013-10-20 20:11:00,
2013-10-20 12:22:00,50.0,49.0,-100.00,North,0,1.0,2.0,97,0.00,,,0.05,,2013-10-20 20:22:00,
2013-10-20 12:32:00,50.0,49.0,-100.00,North,0,1.0,2.0,97,0.00,,,0.05,,2013-10-20 20:32:00,
2013-10-20 12:42:00,50.0,49.0,-100.00,North,0,1.0,2.0,97,0.00,,,0.05,,2013-10-20 20:42:00,
2013-10-20 12:52:00,51.0,48.0,-100.00,NNE,25,2.0,4.0,92,0.00,,,0.05,,2013-10-20 20:52:00,
2013-10-20 13:02:00,51.0,48.0,-100.00,NNE,25,2.0,4.0,92,0.00,,,0.05,,2013-10-20 21:02:00,
2013-10-20 13:11:00,51.0,48.0,-100.00,NNE,25,2.0,4.0,92,0.00,,,0.05,,2013-10-20 21:11:00,
2013-10-20 13:21:00,51.0,47.0,-100.00,South,180,0.0,1.0,87,0.00,,,0.05,,2013-10-20 21:21:00,
2013-10-20 13:34:00,51.0,47.0,-100.00,South,180,0.0,1.0,87,0.00,,,0.05,,2013-10-20 21:34:00,
2013-10-20 13:43:00,51.0,47.0,-100.00,South,180,0.0,1.0,87,0.00,,,0.05,,2013-10-20 21:43:00,
2013-10-20 13:53:00,51.0,47.0,-100.00,SSW,195,1.0,2.0,87,0.00,,,0.05,,2013-10-20 21:53:00,
2013-10-20 14:04:00,51.0,47.0,-100.00,SSW,195,1.0,2.0,87,0.00,,,0.05,,2013-10-20 22:04:00,
2013-10-20 14:13:00,51.0,47.0,-100.00,SSW,195,1.0,2.0,87,0.00,,,0.05,,2013-10-20 22:13:00,
2013-10-20 14:23:00,52.0,47.0,-100.00,WSW,245,1.0,1.0,86,0.00,,,0.05,,2013-10-20 22:23:00,
2013-10-20 14:33:00,52.0,47.0,-100.00,WSW,245,1.0,1.0,86,0.00,,,0.05,,2013-10-20 22:33:00,
2013-10-20 14:43:00,52.0,47.0,-100.00,WSW,245,1.0,1.0,86,0.00,,,0.05,,2013-10-20 22:43:00,
2013-10-20 14:53:00,52.0,47.0,-100.00,West,270,1.0,2.0,86,0.00,,,0.05,,2013-10-20 22:53:00,
2013-10-20 15:03:00,52.0,47.0,-100.00,West,270,1.0,2.0,86,0.00,,,0.05,,2013-10-20 23:03:00,
2013-10-20 15:13:00,52.0,47.0,-100.00,West,270,1.0,2.0,86,0.00,,,0.05,,2013-10-20 23:13:00,
2013-10-20 15:22:00,52.0,48.0,-100.00,North,355,1.0,1.0,86,0.00,,,0.05,,2013-10-20 23:22:00,
2013-10-20 15:34:00,52.0,48.0,-100.00,North,355,1.0,1.0,86,0.00,,,0.05,,2013-10-20 23:34:00,
2013-10-20 15:42:00,52.0,48.0,-100.00,North,355,1.0,1.0,86,0.00,,,0.05,,2013-10-20 23:42:00,
2013-10-20 15:52:00,52.0,48.0,-100.00,North,350,0.0,0.0,86,0.00,,,0.05,,2013-10-20 23:52:00,
2013-10-20 16:02:00,52.0,48.0,-100.00,North,350,0.0,0.0,86,0.00,,,0.05,,2013-10-21 00:02:00,
2013-10-20 16:11:00,52.0,48.0,-100.00,North,350,0.0,0.0,86,0.00,,,0.05,,2013-10-21 00:11:00,
2013-10-20 16:21:00,52.0,47.0,-100.00,West,260,1.0,2.0,85,0.00,,,0.05,,2013-10-21 00:21:00,
2013-10-20 16:32:00,52.0,47.0,-100.00,West,260,1.0,2.0,85,0.00,,,0.05,,2013-10-21 00:32:00,
2013-10-20 16:43:00,52.0,47.0,-100.00,West,260,1.0,2.0,85,0.00,,,0.05,,2013-10-21 00:43:00,
2013-10-20 16:52:00,51.0,47.0,-100.00,South,180,1.0,1.0,85,0.00,,,0.05,,2013-10-21 00:52:00,
2013-10-20 17:02:00,51.0,47.0,-100.00,South,180,1.0,1.0,85,0.00,,,0.05,,2013-10-21 01:02:00,
2013-10-20 17:11:00,51.0,47.0,-100.00,South,180,1.0,1.0,85,0.00,,,0.05,,2013-10-21 01:11:00,
2013-10-20 17:21:00,52.0,48.0,-100.00,WSW,245,0.0,0.0,86,0.00,,,0.05,,2013-10-21 01:21:00,
2013-10-20 17:32:00,52.0,48.0,-100.00,WSW,245,0.0,0.0,86,0.00,,,0.05,,2013-10-21 01:32:00,
2013-10-20 17:42:00,52.0,48.0,-100.00,WSW,245,0.0,0.0,86,0.00,,,0.05,,2013-10-21 01:42:00,
2013-10-20 17:52:00,51.0,47.0,-100.00,SSE,150,1.0,4.0,86,0.00,,,0.05,,2013-10-21 01:52:00,
2013-10-20 18:02:00,51.0,47.0,-100.00,SSE,150,1.0,4.0,86,0.00,,,0.05,,2013-10-21 02:02:00,
2013-10-20 18:12:00,51.0,47.0,-100.00,SSE,150,1.0,4.0,86,0.00,,,0.05,,2013-10-21 02:12:00,
2013-10-20 18:21:00,50.0,44.0,-100.00,SW,235,3.0,9.0,80,0.00,,,0.05,,2013-10-21 02:21:00,
2013-10-20 18:32:00,50.0,44.0,-100.00,SW,235,3.0,9.0,80,0.00,,,0.05,,2013-10-21 02:32:00,
2013-10-20 18:42:00,50.0,44.0,-100.00,SW,235,3.0,9.0,80,0.00,,,0.05,,2013-10-21 02:42:00,
2013-10-20 18:52:00,49.0,42.0,-100.00,South,185,1.0,6.0,77,0.00,,,0.05,,2013-10-21 02:52:00,
2013-10-20 19:03:00,49.0,42.0,-100.00,South,185,1.0,6.0,77,0.00,,,0.05,,2013-10-21 03:03:00,
2013-10-20 19:12:00,49.0,42.0,-100.00,South,185,1.0,6.0,77,0.00,,,0.05,,2013-10-21 03:12:00,
2013-10-20 19:22:00,49.0,44.0,-100.00,NNE,20,2.0,2.0,85,0.00,,,0.05,,2013-10-21 03:22:00,
2013-10-20 19:34:00,49.0,44.0,-100.00,NNE,20,2.0,2.0,85,0.00,,,0.05,,2013-10-21 03:34:00,
2013-10-20 19:45:00,49.0,44.0,-100.00,NNE,20,2.0,2.0,85,0.00,,,0.05,,2013-10-21 03:45:00,
2013-10-20 19:54:00,48.0,45.0,-100.00,North,355,1.0,4.0,90,0.00,,,0.05,,2013-10-21 03:54:00,
2013-10-20 20:04:00,48.0,45.0,-100.00,North,355,1.0,4.0,90,0.00,,,0.05,,2013-10-21 04:04:00,
2013-10-20 20:13:00,48.0,45.0,-100.00,North,355,1.0,4.0,90,0.00,,,0.05,,2013-10-21 04:13:00,
2013-10-20 20:24:00,48.0,46.0,-100.00,North,5,1.0,1.0,93,0.00,,,0.05,,2013-10-21 04:24:00,
2013-10-20 20:34:00,48.0,46.0,-100.00,North,5,1.0,1.0,93,0.00,,,0.05,,2013-10-21 04:34:00,
2013-10-20 20:44:00,48.0,46.0,-100.00,North,5,1.0,1.0,93,0.00,,,0.05,,2013-10-21 04:44:00,
2013-10-20 20:53:00,47.0,45.0,-100.00,NE,35,1.0,2.0,95,0.00,,,0.05,,2013-10-21 04:53:00,
2013-10-20 21:04:00,47.0,45.0,-100.00,NE,35,1.0,2.0,95,0.00,,,0.05,,2013-10-21 05:04:00,
2013-10-20 21:13:00,47.0,45.0,-100.00,NE,35,1.0,2.0,95,0.00,,,0.05,,2013-10-21 05:13:00,
2013-10-20 21:23:00,45.0,44.0,-100.00,East,85,2.0,6.0,95,0.00,,,0.05,,2013-10-21 05:23:00,
2013-10-20 21:34:00,45.0,44.0,-100.00,East,85,2.0,6.0,95,0.00,,,0.05,,2013-10-21 05:34:00,
2013-10-20 21:43:00,45.0,44.0,-100.00,East,85,2.0,6.0,95,0.00,,,0.05,,2013-10-21 05:43:00,
2013-10-20 21:52:00,45.0,43.0,-100.00,SE,130,2.0,4.0,94,0.00,,,0.05,,2013-10-21 05:52:00,
2013-10-20 22:02:00,45.0,43.0,-100.00,SE,130,2.0,4.0,94,0.00,,,0.05,,2013-10-21 06:02:00,
2013-10-20 22:12:00,45.0,43.0,-100.00,SE,130,2.0,4.0,94,0.00,,,0.05,,2013-10-21 06:12:00,
2013-10-20 22:22:00,44.0,42.0,-100.00,NE,50,1.0,2.0,93,0.00,,,0.05,,2013-10-21 06:22:00,
2013-10-20 22:32:00,44.0,42.0,-100.00,NE,50,1.0,2.0,93,0.00,,,0.05,,2013-10-21 06:32:00,
2013-10-20 22:42:00,44.0,42.0,-100.00,NE,50,1.0,2.0,93,0.00,,,0.05,,2013-10-21 06:42:00,
2013-10-20 22:52:00,44.0,43.0,-100.00,ESE,120,1.0,1.0,95,0.00,,,0.05,,2013-10-21 06:52:00,
2013-10-20 23:02:00,44.0,43.0,-100.00,ESE,120,1.0,1.0,95,0.00,,,0.05,,2013-10-21 07:02:00,
2013-10-20 23:12:00,44.0,43.0,-100.00,ESE,120,1.0,1.0,95,0.00,,,0.05,,2013-10-21 07:12:00,
2013-10-20 23:22:00,44.0,43.0,-100.00,North,0,1.0,4.0,95,0.00,,,0.05,,2013-10-21 07:22:00,
2013-10-20 23:32:00,44.0,43.0,-100.00,North,0,1.0,4.0,95,0.00,,,0.05,,2013-10-21 07:32:00,
2013-10-20 23:42:00,44.0,43.0,-100.00,North,0,1.0,4.0,95,0.00,,,0.05,,2013-10-21 07:42:00,
2013-10-20 23:52:00,44.0,42.0,-100.00,East,95,0.0,1.0,95,0.00,,,0.05,,2013-10-21 07:52:00,